Weather History for Los Alamos, NM

Change the Weather History Date:

Friday, November 22, 2013

  Actual Average Record
Temperature  
Mean Temperature 28 °F -  
Max Temperature 33 °F 46 °F 60 °F (2006)
Min Temperature 23 °F 25 °F -4 °F (1957)
Degree Days  
Heating Degree Days 37    
Moisture  
Dew Point 27 °F    
Average Humidity 99    
Maximum Humidity 100    
Minimum Humidity 91    
Precipitation  
Precipitation 0.13 in - - ()
Sea Level Pressure  
Sea Level Pressure 30.31 in    
Wind  
Wind Speed 8 mph (South)    
Max Wind Speed 15 mph    
Max Gust Speed 20 mph    
Visibility 8 miles    
Events Snow    
Averages and records for this station are not official NWS values.
T = Trace of Precipitation, MM = Missing Value Source: NWS Daily Summary

Daily Weather History Graph

Daily Weather History Graph

Search for Another Location

Airport:

Trip Planner

Search our weather history database for the weather conditions in past years. The results will help you decide how hot, cold, wet, or windy it might be!

Date:

Astronomy

Nov. 22, 2013 Rise Set
Actual Time 6:48 AM MST 4:53 PM MST
Civil Twilight 6:20 AM MST 5:21 PM MST
Nautical Twilight 5:49 AM MST 5:52 PM MST
Astronomical Twilight 5:19 AM MST 6:23 PM MST
Moon 9:25 PM MST (11/22) 10:35 AM MST (11/22)
Length of Visible Light 11h 00m
Length of Day
10h 05m
Waning Gibbous, 77% of the Moon is Illuminated
Nov 22
Waning Gibbous
Nov 25
Last Quarter
Dec 2
New
Dec 9
First Quarter
Dec 17
Full

Hourly Weather History & Observations

Time (MST) Temp. Windchill Dew Point Humidity Pressure Visibility Wind Dir Wind Speed Gust Speed Precip Events Conditions
12:15 AM 33.4 °F 27.3 °F 33.4 °F 100% 30.20 in 1.2 mi SSW 6.9 mph - 0.03 in Snow Snow
12:35 AM 33.4 °F 26.6 °F 33.4 °F 100% 30.21 in 1.0 mi SSW 8.1 mph - 0.05 in Snow Snow
12:55 AM 33.6 °F 26.2 °F 33.6 °F 100% 30.21 in 1.8 mi SSW 9.2 mph - 0.05 in Snow Light Snow
1:15 AM 33.4 °F 26.6 °F 33.4 °F 100% 30.21 in 1.5 mi SSW 8.1 mph - 0.01 in Snow Light Snow
1:35 AM 33.4 °F 27.3 °F 33.4 °F 100% 30.21 in 1.2 mi SSW 6.9 mph - 0.03 in Snow Snow
1:55 AM 33.4 °F 26.6 °F 33.4 °F 100% 30.21 in 1.5 mi SW 8.1 mph - 0.04 in Snow Light Snow
2:15 AM 33.8 °F 27.0 °F 33.8 °F 100% 30.22 in 3.0 mi SSW 8.1 mph - 0.01 in Snow Light Snow
2:35 AM 33.1 °F 23.9 °F 33.1 °F 100% 30.23 in 2.5 mi SSW 12.7 mph - 0.01 in Snow Light Snow
2:55 AM 32.4 °F 23.5 °F 32.4 °F 100% 30.23 in 3.0 mi South 11.5 mph - 0.02 in Snow Light Snow
3:15 AM 31.8 °F 23.3 °F 31.8 °F 100% 30.23 in 1.8 mi South 10.4 mph 16.1 mph N/A Snow Light Snow
3:35 AM 31.3 °F 22.7 °F 31.3 °F 100% 30.23 in 1.8 mi South 10.4 mph - 0.01 in Snow Light Snow
3:55 AM 30.7 °F 20.0 °F 30.7 °F 100% 30.24 in 4.0 mi South 15.0 mph 18.4 mph 0.01 in   Overcast
4:15 AM 30.0 °F 20.5 °F 30.0 °F 100% 30.25 in 7.0 mi SSW 11.5 mph - N/A Snow Light Snow
4:35 AM 29.7 °F 21.3 °F 29.7 °F 100% 30.25 in 4.0 mi SSW 9.2 mph 17.3 mph N/A Snow Light Snow
4:55 AM 29.7 °F 20.1 °F 29.3 °F 99% 30.27 in 3.0 mi SSW 11.5 mph 19.6 mph 0.01 in Snow Light Snow
5:15 AM 29.1 °F 18.9 °F 29.1 °F 100% 30.27 in 1.0 mi SSW 12.7 mph - N/A Snow Snow
5:35 AM 29.1 °F 18.9 °F 28.4 °F 97% 30.27 in 7.0 mi SSW 12.7 mph 17.3 mph N/A Snow Light Snow
8:15 AM 30.6 °F 23.1 °F 28.2 °F 91% 30.32 in 10.0 mi SSW 8.1 mph - N/A   Unknown
8:35 AM 30.4 °F 22.9 °F 28.4 °F 92% 30.32 in 10.0 mi SSW 8.1 mph - N/A   Overcast
8:55 AM 30.9 °F 27.5 °F 28.9 °F 92% 30.34 in 10.0 mi SW 3.5 mph - N/A   Overcast
9:15 AM 31.1 °F 25.4 °F 29.1 °F 92% 30.34 in 10.0 mi South 5.8 mph - N/A   Overcast
9:35 AM 28.2 °F 23.1 °F 28.0 °F 99% 30.35 in 10.0 mi SSE 4.6 mph - N/A   Overcast
9:55 AM 26.1 °F 20.5 °F 26.1 °F 100% 30.35 in 10.0 mi South 4.6 mph - N/A   Overcast
10:15 AM 25.5 °F 17.8 °F 25.5 °F 100% 30.35 in 10.0 mi South 6.9 mph - N/A   Overcast
10:35 AM 24.4 °F 14.9 °F 24.4 °F 100% 30.35 in 10.0 mi South 9.2 mph - N/A   Overcast
10:55 AM 24.1 °F 15.2 °F 24.1 °F 100% 30.35 in 10.0 mi SSE 8.1 mph - N/A   Overcast
11:15 AM 23.7 °F 14.7 °F 23.7 °F 100% 30.35 in 10.0 mi South 8.1 mph - N/A   Overcast
11:35 AM 23.9 °F 14.2 °F 23.9 °F 100% 30.33 in 10.0 mi South 9.2 mph - N/A   Overcast
11:55 AM 24.4 °F 14.2 °F 24.4 °F 100% 30.32 in 10.0 mi South 10.4 mph - N/A   Overcast
12:15 PM 24.4 °F 13.5 °F 24.4 °F 100% 30.33 in 10.0 mi South 11.5 mph - N/A   Overcast
12:35 PM 24.6 °F 15.8 °F 24.6 °F 100% 30.32 in 10.0 mi South 8.1 mph - N/A   Overcast
12:55 PM 23.9 °F 12.9 °F 23.9 °F 100% 30.33 in 10.0 mi South 11.5 mph 17.3 mph N/A   Overcast
1:15 PM 23.9 °F 15.8 °F 23.9 °F 100% 30.32 in 10.0 mi South 6.9 mph - N/A   Overcast
1:35 PM 23.7 °F 14.7 °F 23.7 °F 100% 30.32 in 10.0 mi South 8.1 mph - N/A   Overcast
1:55 PM 23.9 °F 14.2 °F 23.9 °F 100% 30.32 in 7.0 mi South 9.2 mph - N/A   Overcast
2:15 PM 24.3 °F 16.3 °F 24.3 °F 100% 30.31 in 10.0 mi South 6.9 mph - N/A   Overcast
2:35 PM 24.6 °F 15.8 °F 24.6 °F 100% 30.31 in 7.0 mi South 8.1 mph - N/A   Overcast
2:55 PM 24.3 °F 16.3 °F 24.3 °F 100% 30.32 in 7.0 mi South 6.9 mph - N/A   Overcast
3:15 PM 24.8 °F 19.1 °F 24.8 °F 100% 30.32 in 10.0 mi SSE 4.6 mph - N/A   Overcast
3:35 PM 24.8 °F 17.9 °F 24.8 °F 100% 30.32 in 10.0 mi SSE 5.8 mph - N/A   Overcast
3:55 PM 24.8 °F 19.1 °F 24.8 °F 100% 30.32 in 10.0 mi South 4.6 mph - N/A   Overcast
4:15 PM 24.8 °F 19.1 °F 24.8 °F 100% 30.33 in 10.0 mi South 4.6 mph - N/A   Overcast
4:35 PM 24.8 °F 17.9 °F 24.8 °F 100% 30.32 in 10.0 mi South 5.8 mph - N/A   Overcast
4:55 PM 25.0 °F 20.7 °F 25.0 °F 100% 30.33 in 10.0 mi South 3.5 mph - N/A   Overcast
5:15 PM 25.0 °F 19.3 °F 25.0 °F 100% 30.33 in 10.0 mi South 4.6 mph - N/A   Overcast
5:35 PM 24.8 °F 16.9 °F 24.8 °F 100% 30.34 in 10.0 mi South 6.9 mph - N/A   Overcast
5:55 PM 24.8 °F 16.1 °F 24.8 °F 100% 30.34 in 10.0 mi SSW 8.1 mph - N/A   Overcast
6:15 PM 24.8 °F 16.9 °F 24.8 °F 100% 30.35 in 10.0 mi South 6.9 mph - N/A   Overcast
6:35 PM 25.0 °F 17.1 °F 25.0 °F 100% 30.36 in 10.0 mi South 6.9 mph - N/A   Overcast
6:55 PM 25.2 °F 18.3 °F 25.2 °F 100% 30.36 in 10.0 mi South 5.8 mph - N/A   Overcast
7:15 PM 25.3 °F 18.5 °F 25.3 °F 100% 30.35 in 10.0 mi South 5.8 mph - N/A   Overcast
7:35 PM 25.7 °F 21.5 °F 25.7 °F 100% 30.36 in 3.0 mi SSW 3.5 mph - N/A   Overcast
7:55 PM 25.7 °F 19.0 °F 25.7 °F 100% 30.36 in 4.0 mi South 5.8 mph - N/A   Overcast
8:15 PM 25.7 °F 21.5 °F 25.7 °F 100% 30.37 in 5.0 mi South 3.5 mph - N/A   Overcast
8:35 PM 25.7 °F 21.5 °F 25.7 °F 100% 30.37 in 7.0 mi South 3.5 mph - N/A   Overcast
8:55 PM 26.1 °F 21.9 °F 26.1 °F 100% 30.37 in 5.0 mi SSW 3.5 mph - N/A   Overcast
9:15 PM 26.2 °F 22.1 °F 26.2 °F 100% 30.37 in 10.0 mi South 3.5 mph - N/A   Overcast
9:35 PM 26.2 °F 22.1 °F 26.2 °F 100% 30.37 in 10.0 mi South 3.5 mph - N/A   Overcast
9:55 PM 26.4 °F - 26.4 °F 100% 30.37 in 10.0 mi Calm Calm - N/A   Overcast
10:15 PM 26.4 °F - 26.4 °F 100% 30.37 in 10.0 mi Calm Calm - N/A   Overcast
10:35 PM 26.6 °F - 26.6 °F 100% 30.37 in 10.0 mi Calm Calm - N/A   Overcast
10:55 PM 27.1 °F - 27.1 °F 100% 30.37 in 10.0 mi Calm Calm - N/A   Overcast
11:15 PM 27.3 °F - 27.3 °F 100% 30.37 in 10.0 mi Calm Calm - N/A   Overcast
11:35 PM 27.1 °F - 27.1 °F 100% 30.37 in 10.0 mi Calm Calm - N/A   Overcast
11:55 PM 27.0 °F - 27.0 °F 100% 30.37 in 7.0 mi Calm Calm - N/A   Overcast